Regional Weather Roundup
Issued by NWS

Home | Current Version | Previous Version | Text Only | Print | Product List | Glossary Off
Versions: 1 2 3 4 5 6 7 8 9 10 11 12 13 14 15 16 17 18 19 20 21 22 23 24 25 26 27 28 29 30 31 32 33 34 35 36 37 38 39 40 41 42 43 44 45 46 47 48 49 50

000
ASUS43 KOAX 031110
RWRNE

WEATHER ROUNDUP FOR NEBRASKA
NATIONAL WEATHER SERVICE OMAHA NE
600 AM CDT THU SEP 03 2015

NOTES: SATELLITE DATA IS BEING USED TO AUGMENT CLOUD COVER ABOVE
       12000 FEET.
       "FAIR" INDICATES FEW OR NO CLOUDS BELOW 12,000 FEET WITH NO
       SIGNIFICANT WEATHER AND/OR OBSTRUCTIONS TO VISIBILITY.

  * THESE STATIONS DO NOT REPORT WEATHER SUCH AS RAIN...SNOW OR FOG.

NEZ001>004-019>022-054>056-031200-
NEBRASKA PANHANDLE

CITY           SKY/WX    TMP DP  RH WIND       PRES   REMARKS
SCOTTSBLUFF    PTCLDY    60  52  74 N6        29.91S
ALLIANCE       PTCLDY    54  50  86 SW5       29.89S
CHADRON        PTCLDY    64  48  56 S5        29.83R
KIMBALL        PTCLDY    58  45  60 W7        29.96S
SIDNEY         CLEAR     56  45  66 NW5       29.93S
$$

NEZ057>060-069>072-079>082-031200-
SOUTHWEST NEBRASKA

CITY           SKY/WX    TMP DP  RH WIND       PRES   REMARKS
NORTH PLATTE   CLEAR     60  58  92 CALM      29.83R
IMPERIAL       CLEAR     61  55  81 CALM      29.85S
LEXINGTON      PTCLDY    69  61  76 SE7       29.82S
MCCOOK         PTCLDY    63  56  78 E5        29.82R
OGALLALA       CLEAR     60  56  84 CALM      29.87R
$$

NEZ005>010-023>029-035>040-094-031200-
NORTH CENTRAL NEBRASKA

CITY           SKY/WX    TMP DP  RH WIND       PRES   REMARKS
VALENTINE      CLEAR     63  59  87 CALM      29.81F
BROKEN BOW     CLEAR     61  58  90 CALM      29.81F
O`NEILL        CLEAR     65  64  96 SE6       29.81S
ORD            CLEAR     63  61  93 SE5       29.80S
THEDFORD       CLEAR     60  58  94 CALM      29.85S
$$

NEZ041-046>049-061>064-073>077-083>087-031200-
SOUTH CENTRAL NEBRASKA

CITY           SKY/WX    TMP DP  RH WIND       PRES   REMARKS
GRAND ISLAND   CLEAR     71  63  75 S10       29.82S
AURORA         CLEAR     69  65  88 S8        29.82S
HASTINGS       CLEAR     72  62  71 S8        29.83S
HEBRON         CLEAR     73  62  66 S9        29.84S
HOLDREGE       CLEAR     68  60  75 S6        29.83S
KEARNEY *      CLEAR     70  59  68 S3        29.82S
YORK           CLEAR     68  64  88 S8        29.83S
$$

NEZ011>018-030>034-042>045-031200-
NORTHEAST NEBRASKA

CITY           SKY/WX    TMP DP  RH WIND       PRES   REMARKS
NORFOLK        CLEAR     65  64  97 E3        29.82S
ALBION         CLEAR     64  62  94 SE3       29.82S
BLAIR          CLEAR     72  66  83 S10       29.84S
COLUMBUS *     CLEAR     70  61  73 CALM      29.83S
FREMONT        CLEAR     72  67  83 SE6       29.84S
TEKAMAH        CLEAR     70  69  97 SE6       29.83S
WAYNE          CLEAR     67  65  93 S3        29.83F
$$

NEZ050>053-065>068-078-088>093-031200-
SOUTHEAST NEBRASKA

CITY           SKY/WX    TMP DP  RH WIND       PRES   REMARKS
LINCOLN        CLEAR     75  66  73 S12       29.83F
OMAHA EPPLEY   PTCLDY    74  69  85 S13       29.84F
BEATRICE       CLEAR     74  65  74 S8        29.86S
FALLS CITY     LGT RAIN  74  68  81 S8        29.88S
NEBRASKA CITY  PTCLDY    72  65  78 S10       29.87S
PLATTSMOUTH    PTCLDY    72  66  82 SE12      29.86S
$$

NEZ044-045-051>053-067-031200-
OMAHA AREA

CITY           SKY/WX    TMP DP  RH WIND       PRES   REMARKS
OMAHA EPPLEY   PTCLDY    74  69  85 S13       29.84F
BLAIR          CLEAR     72  66  83 S10       29.84S
FREMONT        CLEAR     72  67  83 SE6       29.84S
MILLARD        CLEAR     72  68  89 SE6       29.84S
OFFUTT AFB     CLEAR     70  68  93 E8        29.84S
PLATTSMOUTH    PTCLDY    72  66  82 SE12      29.86S
WAHOO          FAIR      68  66  93 SE5       29.83S
$$



USA.gov is the U.S. government's official web portal to all federal, state and local government web resources and services.